When you browse on this site, cookies collect data to enhance your experience and personalize the content and advertising you see.
Visit our Privacy Policy to learn more. By continuing to use the site, you agree to this use of cookies and data.

Meteo pe oră la Montana

Astăzi, 12 August, Miercuri

Timp Temperatura Precipitaţii Vânt Presiune Umiditate
00:00 +24°C° 0 mm 1 m/s 735 mmHg 63%
01:00 +24°C° 0 mm 1 m/s 734 mmHg 64%
02:00 +23°C° 0 mm 1 m/s 734 mmHg 66%
03:00 +23°C° 0 mm 1 m/s 734 mmHg 67%
04:00 +23°C° 0 mm 1 m/s 734 mmHg 68%
05:00 +22°C° 0 mm 1 m/s 734 mmHg 68%
06:00 +24°C° 0 mm 1 m/s 735 mmHg 66%
07:00 +25°C° 0 mm 1 m/s 735 mmHg 63%
08:00 +26°C° 0 mm 1 m/s 735 mmHg 60%
09:00 +28°C° 0.1 mm 1 m/s 735 mmHg 56%
10:00 +29°C° 0.1 mm 2 m/s 735 mmHg 52%
11:00 +30°C° 0.1 mm 2 m/s 735 mmHg 48%
12:00 +31°C° 0.3 mm 2 m/s 735 mmHg 47%
13:00 +31°C° 0.3 mm 2 m/s 734 mmHg 45%
14:00 +32°C° 0.3 mm 2 m/s 734 mmHg 44%
15:00 +32°C° 0.4 mm 2 m/s 734 mmHg 44%
16:00 +31°C° 0.4 mm 2 m/s 734 mmHg 45%
17:00 +31°C° 0.4 mm 2 m/s 734 mmHg 46%
18:00 +30°C° 0.1 mm 2 m/s 734 mmHg 50%
19:00 +28°C° 0.1 mm 1 m/s 734 mmHg 55%
20:00 +26°C° 0.1 mm 1 m/s 734 mmHg 59%
21:00 +25°C° 0.2 mm 1 m/s 735 mmHg 62%
22:00 +24°C° 0.2 mm 1 m/s 735 mmHg 66%
23:00 +24°C° 0.2 mm 1 m/s 735 mmHg 69%

Mâine, 13 August, Joi

Timp Temperatura Precipitaţii Vânt Presiune Umiditate
00:00 +23°C° 0.1 mm 1 m/s 735 mmHg 71%
01:00 +22°C° 0.1 mm 1 m/s 735 mmHg 73%
02:00 +20°C° 0.1 mm 0 m/s 735 mmHg 76%
03:00 +19°C° 0 mm 0 m/s 735 mmHg 78%
04:00 +19°C° 0 mm 0 m/s 735 mmHg 80%
05:00 +20°C° 0 mm 1 m/s 735 mmHg 83%
06:00 +21°C° 0 mm 1 m/s 735 mmHg 80%
07:00 +22°C° 0 mm 1 m/s 736 mmHg 77%
08:00 +23°C° 0 mm 1 m/s 736 mmHg 74%
09:00 +25°C° 0.1 mm 1 m/s 736 mmHg 69%
10:00 +26°C° 0.1 mm 1 m/s 736 mmHg 63%
11:00 +28°C° 0.1 mm 2 m/s 736 mmHg 57%
12:00 +29°C° 0.2 mm 2 m/s 736 mmHg 54%
13:00 +29°C° 0.2 mm 2 m/s 736 mmHg 52%
14:00 +30°C° 0.2 mm 2 m/s 735 mmHg 49%
15:00 +30°C° 0.1 mm 2 m/s 735 mmHg 47%
16:00 +30°C° 0.1 mm 1 m/s 735 mmHg 46%
17:00 +31°C° 0.1 mm 1 m/s 735 mmHg 45%
18:00 +29°C° 0 mm 1 m/s 735 mmHg 50%
19:00 +27°C° 0 mm 1 m/s 734 mmHg 56%
20:00 +25°C° 0 mm 1 m/s 734 mmHg 62%
21:00 +24°C° 0 mm 1 m/s 734 mmHg 63%
22:00 +24°C° 0 mm 1 m/s 735 mmHg 65%
23:00 +23°C° 0 mm 1 m/s 735 mmHg 66%

Poimâine, 14 August, Vineri

Timp Temperatura Precipitaţii Vânt Presiune Umiditate
00:00 +23°C° 0 mm 1 m/s 735 mmHg 67%
01:00 +23°C° 0 mm 1 m/s 735 mmHg 67%
02:00 +22°C° 0 mm 1 m/s 734 mmHg 68%
03:00 +22°C° 0 mm 1 m/s 734 mmHg 69%
04:00 +22°C° 0 mm 1 m/s 734 mmHg 70%
05:00 +21°C° 0 mm 1 m/s 734 mmHg 72%
06:00 +23°C° 0 mm 1 m/s 734 mmHg 68%
07:00 +24°C° 0 mm 1 m/s 734 mmHg 65%
08:00 +24°C° 0 mm 0 m/s 734 mmHg 62%
09:00 +27°C° 0 mm 1 m/s 734 mmHg 56%
10:00 +29°C° 0 mm 1 m/s 734 mmHg 50%
11:00 +31°C° 0 mm 1 m/s 734 mmHg 44%
12:00 +32°C° 0 mm 1 m/s 734 mmHg 41%
13:00 +32°C° 0 mm 1 m/s 733 mmHg 38%
14:00 +33°C° 0 mm 1 m/s 733 mmHg 35%
15:00 +33°C° 0.1 mm 1 m/s 733 mmHg 35%
16:00 +33°C° 0.1 mm 1 m/s 733 mmHg 36%
17:00 +33°C° 0.1 mm 1 m/s 732 mmHg 37%
18:00 +30°C° 0 mm 1 m/s 732 mmHg 42%
19:00 +28°C° 0 mm 1 m/s 732 mmHg 48%
20:00 +26°C° 0 mm 1 m/s 732 mmHg 54%
21:00 +26°C° 0 mm 1 m/s 732 mmHg 55%
22:00 +25°C° 0 mm 1 m/s 733 mmHg 56%
23:00 +24°C° 0 mm 1 m/s 733 mmHg 57%

15 August, Sâmbătă

Timp Temperatura Precipitaţii Vânt Presiune Umiditate
00:00 +24°C° 0 mm 1 m/s 733 mmHg 58%
01:00 +24°C° 0 mm 1 m/s 733 mmHg 59%
02:00 +24°C° 0 mm 1 m/s 733 mmHg 60%
03:00 +23°C° 0 mm 1 m/s 733 mmHg 61%
04:00 +22°C° 0 mm 1 m/s 733 mmHg 62%
05:00 +22°C° 0 mm 1 m/s 732 mmHg 64%
06:00 +23°C° 0.2 mm 1 m/s 733 mmHg 63%
07:00 +24°C° 0.2 mm 1 m/s 733 mmHg 62%
08:00 +25°C° 0.2 mm 1 m/s 733 mmHg 61%
09:00 +26°C° 0.4 mm 1 m/s 733 mmHg 57%
10:00 +28°C° 0.4 mm 1 m/s 733 mmHg 54%
11:00 +29°C° 0.4 mm 1 m/s 733 mmHg 50%
12:00 +31°C° 0.4 mm 1 m/s 733 mmHg 47%
13:00 +32°C° 0.4 mm 1 m/s 733 mmHg 44%
14:00 +33°C° 0.4 mm 1 m/s 732 mmHg 41%
15:00 +33°C° 0.1 mm 1 m/s 732 mmHg 41%
16:00 +32°C° 0.1 mm 1 m/s 732 mmHg 41%
17:00 +32°C° 0.1 mm 1 m/s 731 mmHg 41%
18:00 +30°C° 0.4 mm 1 m/s 732 mmHg 48%
19:00 +28°C° 0.4 mm 1 m/s 732 mmHg 56%
20:00 +26°C° 0.4 mm 2 m/s 732 mmHg 63%
21:00 +24°C° 1.4 mm 2 m/s 732 mmHg 70%
22:00 +23°C° 1.4 mm 2 m/s 733 mmHg 76%
23:00 +21°C° 1.4 mm 2 m/s 733 mmHg 83%

16 August, Duminică

Timp Temperatura Precipitaţii Vânt Presiune Umiditate
00:00 +21°C° 0.2 mm 2 m/s 733 mmHg 82%
01:00 +21°C° 0.2 mm 2 m/s 733 mmHg 81%
02:00 +22°C° 0.2 mm 1 m/s 733 mmHg 79%
03:00 +22°C° 0 mm 1 m/s 733 mmHg 79%
04:00 +21°C° 0 mm 1 m/s 733 mmHg 79%
05:00 +21°C° 0 mm 1 m/s 733 mmHg 79%
06:00 +21°C° 0.1 mm 1 m/s 733 mmHg 78%
07:00 +22°C° 0.1 mm 1 m/s 733 mmHg 78%
08:00 +22°C° 0.1 mm 1 m/s 734 mmHg 77%
09:00 +23°C° 0 mm 1 m/s 734 mmHg 74%
10:00 +23°C° 0 mm 1 m/s 734 mmHg 72%
11:00 +24°C° 0 mm 1 m/s 735 mmHg 69%
12:00 +25°C° 0.1 mm 2 m/s 734 mmHg 65%
13:00 +26°C° 0.1 mm 2 m/s 734 mmHg 61%
14:00 +27°C° 0.1 mm 2 m/s 734 mmHg 57%
15:00 +27°C° 0.1 mm 2 m/s 734 mmHg 55%
16:00 +28°C° 0.1 mm 2 m/s 734 mmHg 53%
17:00 +28°C° 0.1 mm 2 m/s 734 mmHg 51%
18:00 +27°C° 0.1 mm 2 m/s 734 mmHg 55%
19:00 +25°C° 0.1 mm 2 m/s 734 mmHg 60%
20:00 +23°C° 0.1 mm 1 m/s 734 mmHg 64%
21:00 +23°C° 0 mm 1 m/s 734 mmHg 65%
22:00 +22°C° 0 mm 1 m/s 734 mmHg 65%
23:00 +22°C° 0 mm 1 m/s 734 mmHg 66%

17 August, Luni

Timp Temperatura Precipitaţii Vânt Presiune Umiditate
00:00 +21°C° 0 mm 1 m/s 734 mmHg 66%
01:00 +21°C° 0 mm 1 m/s 734 mmHg 66%
02:00 +21°C° 0 mm 1 m/s 734 mmHg 66%
03:00 +20°C° 0 mm 1 m/s 734 mmHg 67%
04:00 +20°C° 0 mm 1 m/s 734 mmHg 69%
05:00 +19°C° 0 mm 1 m/s 735 mmHg 70%
06:00 +20°C° 0 mm 1 m/s 735 mmHg 67%
07:00 +22°C° 0 mm 1 m/s 735 mmHg 64%
08:00 +23°C° 0 mm 1 m/s 735 mmHg 61%
09:00 +25°C° 0 mm 1 m/s 735 mmHg 56%
10:00 +27°C° 0 mm 1 m/s 735 mmHg 51%
11:00 +28°C° 0 mm 2 m/s 735 mmHg 45%
12:00 +29°C° 0 mm 2 m/s 735 mmHg 43%
13:00 +30°C° 0 mm 2 m/s 735 mmHg 40%
14:00 +31°C° 0 mm 2 m/s 734 mmHg 38%
15:00 +31°C° 0.1 mm 2 m/s 734 mmHg 37%
16:00 +31°C° 0.1 mm 2 m/s 734 mmHg 37%
17:00 +31°C° 0.1 mm 2 m/s 733 mmHg 36%
18:00 +29°C° 0 mm 2 m/s 733 mmHg 41%
19:00 +27°C° 0 mm 1 m/s 733 mmHg 45%
20:00 +25°C° 0 mm 1 m/s 733 mmHg 49%
21:00 +24°C° 0 mm 1 m/s 733 mmHg 49%
22:00 +23°C° 0 mm 1 m/s 733 mmHg 50%
23:00 +23°C° 0 mm 1 m/s 734 mmHg 50%
Arată mai mult